FENTRESS NALF, VA

3:20 PM EDT on May 23, 2017 (GMT -0400)
Fentress Naval Air Landing Field

Weather History for KNFE - April, 2014

Change the Weather History Date:

Friday, April 18, 2014

  Actual Average (KNTU) Record (KNTU)
Temperature  
Mean Temperature 50 °F -  
Max Temperature 57 °F 66 °F 88 °F (2016)
Min Temperature 46 °F 47 °F 37 °F (2001)
Degree Days  
Heating Degree Days 14    
Moisture  
Dew Point 39 °F    
Average Humidity 66    
Maximum Humidity 77    
Minimum Humidity 53    
Precipitation  
Precipitation 0.00 in - - ()
Sea Level Pressure  
Sea Level Pressure 30.40 in    
Wind  
Wind Speed 10 mph (NNE)    
Max Wind Speed 13 mph    
Max Gust Speed -    
Visibility 10 miles    
Events      
Averages and records for this station are not official NWS values.
T = Trace of Precipitation, MM = Missing Value Source: NWS Daily Summary

Daily Weather History Graph

Daily Weather History Graph

Search for Another Location

Airport or City:

Trip Planner

Search our weather history database for the weather conditions in past years. The results will help you decide how hot, cold, wet, or windy it might be!

Date:

Astronomy

Apr. 18, 2014 Rise Set
Actual Time 6:26 AM EDT 7:41 PM EDT
Civil Twilight 5:59 AM EDT 8:08 PM EDT
Nautical Twilight 5:27 AM EDT 8:40 PM EDT
Astronomical Twilight 4:54 AM EDT 9:14 PM EDT
Moon 11:21 PM EDT (4/18) 8:50 AM EDT (4/18)
Length of Visible Light 14h 08m
Length of Day
13h 14m
Waning Gibbous, 87% of the Moon is Illuminated
Apr 18
Waning Gibbous
Apr 22
Last Quarter
Apr 29
New
May 6
First Quarter
May 14
Full

Hourly Weather History & Observations

Time (EDT) Temp. Dew Point Humidity Pressure Visibility Wind Dir Wind Speed Gust Speed Precip Events Conditions
12:56 AM 48.0 °F 37.0 °F 66% 30.53 in 10.0 mi NNE 10.4 mph - N/A   Overcast
1:56 AM 48.0 °F 37.9 °F 68% 30.49 in 10.0 mi NNE 9.2 mph - N/A   Overcast
2:56 AM 46.9 °F 37.0 °F 68% 30.45 in 10.0 mi NNE 11.5 mph - N/A   Overcast
3:08 AM 46.9 °F 37.9 °F 71% 30.44 in 10.0 mi North 10.4 mph - N/A   Overcast
3:56 AM 46.9 °F 37.9 °F 71% 30.44 in 10.0 mi North 8.1 mph - N/A   Overcast
4:56 AM 46.9 °F 37.0 °F 68% 30.44 in 10.0 mi NNE 9.2 mph - N/A   Overcast
5:56 AM 46.9 °F 37.0 °F 68% 30.45 in 10.0 mi North 10.4 mph - N/A   Overcast
6:29 AM 46.9 °F 37.0 °F 68% 30.45 in 10.0 mi North 9.2 mph - N/A   Overcast
6:42 AM 46.9 °F 37.0 °F 68% 30.45 in 10.0 mi North 10.4 mph - N/A   Overcast
6:56 AM 46.9 °F 37.0 °F 68% 30.46 in 10.0 mi NNE 12.7 mph - N/A   Overcast
7:45 AM 46.9 °F 37.0 °F 68% 30.45 in 10.0 mi NNE 10.4 mph - N/A   Overcast
7:56 AM 46.9 °F 37.0 °F 68% 30.46 in 10.0 mi NE 11.5 mph - N/A   Overcast
8:56 AM 48.9 °F 37.9 °F 66% 30.46 in 10.0 mi NE 11.5 mph - N/A   Overcast
9:56 AM 51.1 °F 37.0 °F 59% 30.46 in 10.0 mi NNE 9.2 mph - N/A   Overcast
10:33 AM 52.0 °F 37.9 °F 59% 30.45 in 10.0 mi NE 11.5 mph - N/A   Scattered Clouds
10:51 AM 55.4 °F 39.2 °F 54% 30.45 in 10.0 mi NE 11.5 mph - N/A   Mostly Cloudy
10:56 AM 55.0 °F 39.0 °F 55% 30.46 in 10.0 mi North 11.5 mph - N/A   Mostly Cloudy
11:28 AM 55.9 °F 39.9 °F 55% 30.44 in 10.0 mi NNE 11.5 mph - N/A   Scattered Clouds
11:56 AM 55.9 °F 39.9 °F 55% 30.44 in 10.0 mi ENE 12.7 mph - N/A   Partly Cloudy
12:56 PM 55.9 °F 39.0 °F 53% 30.43 in 10.0 mi NNE 12.7 mph - N/A   Clear
1:56 PM 55.9 °F 39.0 °F 53% 30.43 in 10.0 mi NNE 11.5 mph - N/A   Clear
2:56 PM 55.0 °F 39.0 °F 55% 30.39 in 10.0 mi NE 12.7 mph - N/A   Clear
3:56 PM 54.0 °F 39.0 °F 57% 30.36 in 10.0 mi ENE 10.4 mph - N/A   Clear
4:42 PM 55.0 °F 39.9 °F 57% 30.34 in 10.0 mi ENE 9.2 mph - N/A   Mostly Cloudy
4:56 PM 53.1 °F 39.9 °F 61% 30.34 in 10.0 mi NE 9.2 mph - N/A   Scattered Clouds
5:56 PM 51.1 °F 39.9 °F 66% 30.32 in 10.0 mi NE 8.1 mph - N/A   Scattered Clouds
6:44 PM 50.0 °F 39.9 °F 68% 30.31 in 10.0 mi NE 6.9 mph - N/A   Mostly Cloudy
6:56 PM 50.0 °F 39.9 °F 68% 30.34 in 10.0 mi NNE 5.8 mph - N/A   Mostly Cloudy
7:09 PM 50.0 °F 39.9 °F 68% 30.32 in 10.0 mi NNE 8.1 mph - N/A   Mostly Cloudy
7:19 PM 50.0 °F 39.9 °F 68% 30.31 in 10.0 mi NNE 8.1 mph - N/A   Scattered Clouds
7:56 PM 48.9 °F 41.0 °F 74% 30.32 in 10.0 mi NNE 5.8 mph - N/A   Scattered Clouds
8:09 PM 48.9 °F 41.0 °F 74% 30.32 in 10.0 mi Variable 4.6 mph - N/A   Mostly Cloudy
8:38 PM 48.9 °F 41.0 °F 74% 30.31 in 10.0 mi NE 6.9 mph - N/A   Partly Cloudy
8:56 PM 48.9 °F 41.0 °F 74% 30.32 in 10.0 mi NE 4.6 mph - N/A   Clear
9:56 PM 48.9 °F 41.0 °F 74% 30.30 in 10.0 mi NNE 8.1 mph - N/A   Scattered Clouds
10:12 PM 48.9 °F 42.1 °F 77% 30.29 in 10.0 mi NE 8.1 mph - N/A   Mostly Cloudy
10:56 PM 48.9 °F 42.1 °F 77% 30.29 in 10.0 mi NE 6.9 mph - N/A   Mostly Cloudy
11:56 PM 48.9 °F 42.1 °F 77% 30.32 in 10.0 mi Calm Calm - N/A   Overcast